Flag for France Weather past 2 weeks in Rodez, France

Now
66 °F

Scattered clouds.


Feels Like: 66 °F
Forecast: 42 / 71 °F
Wind: 8 mph from Northwest

Location: Rodez Airport

Current Time: May 29, 2015 at 1:10:29 PM

Latest Report: May 29, 2015 at 12:30 PM


Visibility: N/A

Pressure: 30.04 "Hg

Humidity: 52%

Dew point: 48 °F

Location of RodezLocation

Historic Weather in Rodez — Graph

°F

Rodez temperature yesterday

Maximum temperature yesterday: 72 °F (at 3:30 PM)
Minimum temperature yesterday: 39 °F (at 4:30 AM)
Average temperature yesterday: 57 °F

Past Weeks' High & Low Weather Summary

 TemperatureHumidityPressure
High72 °F (May 28, 3:30 PM)100% (May 15, 5:00 AM)30.39 "Hg (May 15, 5:00 AM)
Low36 °F (May 21, 6:00 AM)25% (May 28, 5:00 PM)29.89 "Hg (May 18, 7:00 PM)
Average54 °F72%30.12 "Hg
* Reported May 14 12:00 Noon — May 29 12:00 Noon, Rodez, Weather by CustomWeather, © 2015

Note: Actual official high and low records may vary slightly from our data, if they occured in-between our weather recording intervals... More about our weather records

Advertising

Rodez weather history for previous 24 hours

 ConditionsComfort  
Time TempWeatherWind HumidityBarometerVisibility
12:00 PM
Fri, May 29
66 °FPassing clouds.8 mph56%30.04 "HgN/A
11:30 AM64 °FPassing clouds.7 mph60%30.04 "HgN/A
11:00 AM64 °FPassing clouds.6 mph56%30.04 "HgN/A
10:30 AM63 °FPassing clouds.7 mph59%30.04 "HgN/A
10:00 AM63 °FPassing clouds.6 mph64%30.04 "HgN/A
9:30 AM61 °FPassing clouds.5 mph68%30.04 "HgN/A
9:00 AM59 °FSunny.2 mph68%30.04 "Hg10 mi
7:30 AM50 °FSunny.2 mph76%30.01 "Hg10 mi
7:00 AM48 °FClear.3 mph82%30.01 "Hg10 mi
6:30 AM45 °FClear.2 mph81%30.01 "Hg10 mi
6:00 AM43 °FClear.2 mph87%30.01 "Hg10 mi
5:30 AM43 °FClear.3 mph81%30.01 "Hg10 mi
5:00 AM45 °FClear.No wind87%30.01 "Hg10 mi
4:30 AM45 °FClear.2 mph87%30.01 "Hg10 mi
4:00 AM46 °FClear.No wind82%30.04 "Hg10 mi
3:30 AM46 °FClear.2 mph82%30.04 "Hg10 mi
3:00 AM46 °FClear.2 mph82%30.04 "Hg10 mi
2:30 AM45 °FClear.2 mph87%30.04 "Hg10 mi
2:00 AM46 °FClear.1 mph87%30.07 "Hg10 mi
1:30 AM46 °FClear.2 mph87%30.07 "Hg10 mi
12:00 AM52 °FClear.2 mph72%30.07 "Hg10 mi
11:30 PM
Thu, May 28
52 °FClear.3 mph72%30.07 "Hg10 mi
11:00 PM55 °FClear.1 mph63%30.07 "Hg10 mi
10:30 PM57 °FClear.2 mph59%30.07 "Hg10 mi
10:00 PM61 °FSunny.3 mph48%30.07 "Hg10 mi
9:30 PM64 °FSunny.3 mph43%30.07 "Hg10 mi
9:00 PM66 °FSunny.3 mph40%30.07 "Hg10 mi
8:30 PM66 °FSunny.6 mph46%30.07 "Hg10 mi
8:00 PM70 °FSunny.7 mph33%30.07 "Hg10 mi
7:30 PM70 °FPassing clouds.8 mph31%30.07 "HgN/A
7:00 PM72 °FPassing clouds.7 mph27%30.07 "HgN/A
6:30 PM72 °FPassing clouds.6 mph29%30.07 "HgN/A
6:00 PM72 °FPassing clouds.7 mph29%30.09 "HgN/A
5:30 PM72 °FPassing clouds.8 mph33%30.09 "HgN/A
5:00 PM72 °FPassing clouds.9 mph25%30.09 "HgN/A
4:30 PM72 °FPassing clouds.7 mph38%30.09 "HgN/A
4:00 PM72 °FPassing clouds.7 mph38%30.09 "HgN/A
3:30 PM72 °FPassing clouds.8 mph41%30.12 "HgN/A
3:00 PM70 °FPassing clouds.7 mph40%30.12 "HgN/A
2:30 PM68 °FPassing clouds.7 mph40%30.12 "HgN/A
2:00 PM68 °FPassing clouds.8 mph40%30.12 "HgN/A
1:30 PM68 °FPassing clouds.8 mph43%30.12 "HgN/A
1:00 PM66 °FSunny.7 mph46%30.12 "Hg10 mi
Weather by CustomWeather, © 2015

See weather overviewHow to use our weather pages